Terminal Aerodrome Forecast
Issued by NWS

Home | Current Version | Previous Version | Text Only | Print | Product List | Glossary On
Versions: 1 2 3 4 5 6 7 8 9 10 11 12 13
000
FTUS44 KLIX 221120
TAFMSY
TAF
KMSY 221120Z 2212/2312 12010KT 5SM -SHRA SCT015 BKN040
      TEMPO 2212/2216 VRB30KT 2SM TSRA BKN015CB
     FM221600 14008KT 6SM SHRA SCT025 BKN070
      TEMPO 2217/2221 2SM TSRA BKN025CB
     FM222300 16006KT P6SM SCT040 BKN100 PROB30 2223/2302 4SM -SHRA
      OVC040
     FM230200 26008KT P6SM BKN040 BKN090 PROB30 2302/2304 4SM -SHRA
      OVC040
     FM230400 29008KT P6SM BKN040 BKN080 PROB30 2304/2306 4SM -SHRA
      OVC025
     FM230700 33011KT P6SM BKN010=

USA.gov is the U.S. government's official web portal to all federal, state and local government web resources and services.